sat.trackr.live / text

‹ back to catalog

STARLINK-1131

NORAD 45047 · 2020-006D

PAYLOAD ACTIVE UNKNOWN

§ Identity

Operator
Country
US
Launch date
2020-01-29
Launch site
AFETR
Launch vehicle
Mass (kg)
RCS (m²)

Purposes: comms

External: N2YO · Heavens-Above · Gunter

§ Orbital elements

Epoch: 2026-09-09T21:53:09.337632Z

Period
91.96 min
Inclination
53.1493°
Eccentricity
0.0004312
Mean motion
15.65958240 rev/d
Perigee alt
367.6 km
Apogee alt
373.4 km
Semi-major
6,748.6 km
B*
3.9723e-4
RAAN
118.6640°
Arg perigee
116.4155°
Mean anomaly
243.7304°
Rev number
36,512

§ Raw data

STARLINK-11311 45047U 20006D   26252.91191363  .00040952  00000+0  39723-3 0  99942 45047  53.1493 118.6640 0004312 116.4155 243.7304 15.65958240365121

JSON: /api/v1/satellites/45047 · /tle

For live sub-satellite position, see the globe view (requires WebGL).

§ Visibility from observer

Set your observer location to see the next 7 days of passes ≥ 10°. The values pass through the URL so the page stays shareable.

No JS? Fill the form by hand. The geolocation button needs JavaScript.